Location: Garden Valley
(41.4801°N, 81.6401°W)
Time: 00:50:05
(UTC+00:00)

Daily predictions for brighter satellites

Satellite Brightness Start Highest point End
(mag) Time Altitude Azimuth Time Altitude Azimuth Time Altitude Azimuth
Cosmos 1975 Rocket 3.5 00:00:34 10° N 00:04:38 39° ENE 00:08:40 10° SSE
Cosmos 2084 Rocket 3.8 00:00:52 10° NNW 00:05:13 50° NE 00:09:37 10° SE
Cosmos 1743 4.1 00:02:06 10° SSW 00:05:47 45° W 00:09:29 10° N
USA 234 4.2 00:01:37 10° ENE 00:06:56 26° SE 00:12:15 10° S
COSMO-SKYMED 1 4.0 00:03:46 10° N 00:07:55 44° WNW 00:12:02 10° SW
Cosmos 1707 4.1 00:05:04 10° NNE 00:08:01 21° ENE 00:10:56 10° ESE
Abrixas rocket 3.6 00:10:44 10° WNW 00:13:13 27° NNW 00:15:43 10° NE
ISS -3.4 00:13:48 10° SW 00:17:02 47° SE 00:20:13 10° ENE
Sich 1 Rocket 3.9 00:13:16 10° SSE 00:17:31 44° E 00:21:50 10° NNE
H-2A R/B 2.0 00:16:28 10° SSE 00:21:19 61° ENE 00:26:17 10° N
ARGOS 3.3 00:20:01 10° SE 00:25:10 51° ENE 00:30:22 10° N
Iridium 4 Rocket 3.8 00:20:28 10° S 00:25:16 71° W 00:30:35 10° N
Cosmos 1437 2.4 00:24:47 10° N 00:27:48 87° ENE 00:30:46 10° S
CZ-2C R/B 3.3 00:26:04 10° NNE 00:31:04 34° E 00:36:05 10° SSE
SJ 16-02 3.8 00:27:28 10° WSW 00:31:09 26° WNW 00:34:51 10° N
SL-08 RB Rocket 4.2 00:27:17 10° SE 00:31:33 39° ENE 00:35:47 10° N
Milstar 3 Cent rocket 4.1 00:32:06 10° SSW 00:34:58 13° S 00:37:15 10° SE
Lacrosse 5 rocket 4.1 00:33:14 10° WNW 00:35:56 16° NNW 00:38:44 10° NNE
NOSS 2-2 (E) 3.2 00:33:42 10° SW 00:37:10 75° NW 00:40:58 10° NNE
Okean 2 Rocket 3.3 00:33:00 10° SSE 00:37:18 46° E 00:41:36 10° NNE
Cosmos 2263 Rocket 3.0 00:36:13 10° SW 00:41:37 52° WNW 00:47:06 10° NNE
ATLAS 2AS CENTAUR R/B 4.2 00:37:01 10° SE 00:46:15 12° ENE 00:46:51 10° ENE
USA 102 4.4 00:37:50 16° SSE 00:42:15 78° ENE 00:46:59 10° NNW
HJ-1C 3.7 00:39:18 10° S 00:42:33 65° W 00:45:50 10° NNW
SJ-11-01 4.5 00:38:17 10° S 00:43:00 75° WSW 00:47:43 10° NNW
DELTA 2 R/B (1) 4.0 00:37:53 10° W 00:43:16 53° SSW 00:46:52 21° SE
NOSS 2-2 (D) 3.1 00:42:12 10° SW 00:45:41 79° NW 00:49:26 10° NNE
CZ-2C R/B 3.6 00:40:57 10° S 00:46:02 61° W 00:51:28 10° NNW
Cosmos 1844 Rocket 3.1 00:43:45 10° S 00:48:48 37° ESE 00:53:53 10° NE
Cosmos 1300 Rocket 3.5 00:45:02 10° S 00:49:21 61° E 00:53:42 10° NNE
Ariane Rocket 3.1 00:50:37 17° SE 00:54:22 56° ENE 00:59:20 10° N
Cosmos 1513 Rocket 4.4 00:48:18 10° S 00:54:35 80° E 01:00:48 10° N
CENTAUR R/B 4.0 00:48:19 10° NNW 00:55:32 35° NE 01:00:05 22° E
USA 186 1.6 00:54:52 44° SE 00:55:34 61° ENE 00:58:43 10° N
Cosmos 1943 3.8 00:54:18 10° NNW 00:59:50 56° WSW 01:05:21 10° S
IRS-1A Rocket 4.4 00:55:24 14° SSE 01:00:29 66° ENE 01:06:19 10° N
Exosat Rocket 4.1 00:55:40 10° S 01:01:08 38° ESE 01:05:47 10° NE
Cosmos 1464 Rocket 3.9 00:56:49 10° S 01:02:56 88° E 01:09:07 10° N
Cosmos 2298 Rocket 3.9 00:58:46 10° S 01:04:02 67° ESE 01:09:19 10° NNE
Meteor 1-15 Rocket 4.4 00:58:52 10° SSE 01:04:08 45° E 01:09:32 10° NNE
USA 238 DEB 4.3 00:57:33 10° NNW 01:04:29 47° NE 01:07:59 29° ESE
USA 238 4.3 00:57:40 10° NNW 01:04:35 46° NE 01:08:04 29° E
Meteor 1-12 Rocket 4.3 00:59:02 10° S 01:04:59 90° WNW 01:10:52 10° N
SPOT 3 Rocket 4.2 01:05:38 31° E 01:06:29 33° ENE 01:11:04 10° N
FREGAT/IRIS 4.1 01:09:18 23° N 01:09:18 23° N 01:10:30 10° N
Cosmos 1536 Rocket 3.6 01:04:23 10° N 01:08:46 56° E 01:09:59 41° SE
MetOp-A 4.1 01:07:54 28° SE 01:10:44 63° ENE 01:16:02 10° N
OBJECT-B 2.5 01:14:10 23° NNE 01:14:10 23° NNE 01:15:43 10° N
Cosmos 1092 Rocket 4.4 01:07:00 10° N 01:12:46 40° ENE 01:14:15 35° ESE
CZ-4 R/B 4.5 01:10:18 10° SW 01:12:50 15° W 01:15:23 10° NW
Cosmos 2151 Rocket 3.5 01:14:06 10° S 01:18:32 87° W 01:23:02 10° N
Cosmos 1867 3.6 01:13:25 10° NW 01:18:53 79° WSW 01:21:22 33° SSE
Cosmos 1025 Rocket 3.1 01:17:18 10° N 01:21:41 76° W 01:23:50 29° S
CZ-2C R/B 2.5 01:20:01 10° WSW 01:22:04 23° SSW 01:22:04 23° SSW
Cosmos 1674 3.5 01:26:17 10° N 01:29:02 41° NNE 01:29:02 41° NNE
DMSP B5D2-2 4.1 01:26:15 10° NNE 01:31:34 82° WNW 01:36:50 10° SSW
NOSS 3-2 (A) 4.0 01:25:14 10° NNW 01:32:52 72° NE 01:36:10 41° SE
Cosmos 2150 Rocket 4.2 01:28:44 10° SSW 01:34:04 74° WNW 01:39:32 10° NNE
Meteor 2-5 Rocket 3.9 01:32:31 10° N 01:38:02 52° ENE 01:38:03 52° ENE
BREEZE-M DEB (TANK) 3.4 01:36:03 10° WNW 01:39:44 82° SSW 01:42:23 43° SE
Cosmos 1125 Rocket 3.4 01:38:53 10° SSW 01:44:11 89° WNW 01:49:33 10° NNE
SJ-6B 3.7 01:44:19 41° WSW 01:44:37 42° W 01:48:11 10° NNW
Resurs 01 Rocket 2.5 01:49:34 40° NNE 01:49:34 40° NNE 01:52:35 10° N
USA 234 3.2 01:43:49 10° NE 01:50:23 84° NW 01:56:56 10° SW
Cosmos 2082 Rocket 4.3 01:50:11 10° NNE 01:52:04 13° NE 01:52:04 13° NE
ISS -1.5 01:51:01 10° W 01:53:13 25° NW 01:53:13 25° NW
COSMOS 2406 4.4 01:56:40 10° N 02:00:31 29° NNE 02:00:31 29° NNE
Meteor 1-24 Rocket 4.0 01:58:33 10° N 02:02:58 54° NNE 02:02:58 54° NNE
ARIANE 5 R/B 4.5 02:07:56 23° N 02:07:56 23° N 02:09:39 10° N
NOSS 3-2 (C) 4.0 01:59:31 10° NNW 02:07:11 75° NE 02:08:32 63° ESE
CZ-2C R/B 4.3 02:06:21 10° N 02:11:16 34° WNW 02:16:14 10° SW
Lacrosse 5 rocket 4.3 02:15:43 10° NNW 02:16:50 11° N 02:17:41 10° NNE
ATLAS 2AS CENTAUR R/B 3.1 02:23:57 10° SSW 02:33:18 64° NE 02:39:50 10° NE
Cosmos 1844 Rocket 4.3 02:27:45 10° WSW 02:32:41 32° WNW 02:37:41 10° N
Cosmos 1634 Rocket 4.4 02:32:53 56° WSW 02:33:27 58° W 02:39:33 10° N
CENTAUR R/B 3.2 02:38:45 10° NW 02:47:00 74° WSW 02:47:17 74° SW
Terra 4.5 02:54:47 13° N 02:54:47 13° N 02:55:19 10° N
ATLAS 3B R/B 3.5 02:46:36 10° NNW 02:51:46 44° NNE 02:51:46 44° NNE
Cosmos 1833 Rocket 4.3 02:51:44 10° NNW 02:54:32 29° N 02:54:32 29° N
Cosmos 2082 Rocket 4.4 03:32:13 10° NNW 03:33:54 20° NNW 03:33:54 20° NNW
SL-16 R/B 4.5 07:12:44 21° NNW 07:12:44 21° NNW 07:14:33 10° NNW
CZ-2D R/B 4.5 07:04:41 10° NNE 07:06:00 18° NNE 07:06:00 18° NNE
Resurs 1-4 Rocket 4.4 07:17:48 10° N 07:19:11 19° N 07:19:11 19° N
Cosmos 1697 Rocket 4.3 07:37:49 30° ENE 07:37:49 30° ENE 07:41:07 10° NE
Cosmos 1980 Rocket 4.1 07:40:43 23° E 07:40:43 23° E 07:44:41 10° NE
USA 267 3.3 07:58:21 10° NE 08:04:18 70° N 08:04:18 70° N
Lacrosse 5 3.1 08:09:35 39° NE 08:09:35 39° NE 08:12:44 10° NE
Cosmos 1821 Rocket 4.2 08:03:39 10° N 08:09:55 64° E 08:10:11 64° E
ADEOS II 3.4 08:19:17 10° N 08:22:10 31° NNW 08:22:10 31° NNW
Nadezhda 3 Rocket 3.8 08:32:55 78° NW 08:32:55 78° NW 08:38:49 10° N
Cosmos 2278 3.8 08:34:00 71° SE 08:34:12 71° ESE 08:39:54 10° NNE
Cosmos 972 Rocket 4.4 08:35:32 52° N 08:35:32 52° N 08:39:15 10° NNE
X-37B 3.7 08:38:14 16° ENE 08:38:14 16° ENE 08:39:05 10° ENE
IDEFIX/ARIANE 42P 2.6 08:31:41 10° NNE 08:36:52 79° E 08:36:52 79° E
USA 234 3.5 08:32:06 10° ESE 08:38:33 67° NE 08:45:02 10° NW
MSX 4.2 08:34:07 10° NNE 08:39:50 60° E 08:41:47 40° SSE
Cosmos 2369 3.8 08:42:33 65° NW 08:42:33 65° NW 08:47:56 10° NNE
ARIANE 5 R/B 2.8 08:39:02 10° N 08:43:10 55° NNW 08:43:10 55° NNW
CZ-3B R/B 3.7 08:44:41 24° N 08:44:41 24° N 08:49:27 10° NE
Cosmos 389 Rocket 4.4 08:47:50 28° NNE 08:47:50 28° NNE 08:49:40 10° NNE
USA 305 3.9 08:47:19 40° NNE 08:47:19 40° NNE 08:50:25 10° NE
CZ-2D R/B 4.4 08:46:46 10° NNW 08:47:19 11° NW 08:47:19 11° NW
USA 306 3.9 08:51:15 41° N 08:51:15 41° N 08:54:30 10° NE
CZ-2D R/B 4.3 08:52:25 10° N 08:55:21 43° N 08:55:21 43° N
ERS-2 4.4 08:54:01 10° SE 08:57:03 25° ENE 09:00:06 10° NNE
SJ 16-02 3.3 08:55:26 10° N 08:59:19 30° ENE 09:03:10 10° SE
H-2A R/B 2.6 08:59:05 10° SSE 09:03:20 60° ENE 09:07:43 10° N
Cosmos 2360 4.4 09:06:43 48° WNW 09:07:12 50° WNW 09:12:48 10° NNE
Cosmos 192 4.2 09:11:15 58° SW 09:12:11 80° WNW 09:17:07 10° NNE
Helios 1B 4.4 09:12:02 44° S 09:13:22 80° WSW 09:17:43 10° NNW
Meteor 1-26 Rocket 4.3 09:13:42 47° W 09:13:59 48° WNW 09:19:13 10° N
ASTEX 1 3.5 09:09:19 10° N 09:14:09 52° W 09:14:18 51° W
Cosmos 1812 3.3 09:12:50 33° SSE 09:14:18 56° E 09:18:05 10° NNE
BREEZE-M DEB (TANK) 2.8 09:17:25 56° NNW 09:17:25 56° NNW 09:22:30 10° ENE
USA 307 3.9 09:17:10 33° NW 09:17:26 33° NNW 09:21:20 10° NE
CZ-2C R/B 3.0 09:12:36 10° NNE 09:17:41 60° E 09:22:47 10° S
BREEZE-M DEB (TANK) 3.6 09:13:55 31° SW 09:17:59 62° SSE 09:21:37 10° ENE
COSMOS 2441 4.3 09:14:16 10° N 09:19:09 69° WNW 09:20:38 44° SW
Cosmos 1697 Rocket 3.6 09:19:34 30° WNW 09:19:57 30° NW 09:24:52 10° N
SL-8 R/B 4.3 09:17:58 27° NW 09:20:20 52° NNE 09:24:59 10° E
USA 308 3.9 09:20:08 32° NW 09:20:33 32° NNW 09:24:25 10° NE
ERBS 2.7 09:21:44 53° SE 09:21:52 54° SE 09:25:09 10° NE
Cosmos 1500 3.3 09:18:14 10° N 09:22:05 73° E 09:25:53 10° SSE
SL-4 R/B 3.9 09:19:51 18° S 09:22:08 28° SE 09:26:09 10° ENE
PAYLOAD A 3.9 09:18:43 10° NNE 09:23:26 77° ESE 09:26:52 18° S
Cosmos 1980 Rocket 2.4 09:22:31 41° WSW 09:23:57 51° WNW 09:29:28 10° NNE
CZ-4B R/B 3.7 09:24:13 10° SE 09:26:49 25° ENE 09:29:31 10° NNE
Cosmos 1339 Rocket 4.4 09:22:54 17° SSW 09:27:50 73° W 09:34:05 10° N
Cosmos 1666 4.3 09:24:21 10° N 09:27:54 35° ENE 09:31:24 10° SE
BREEZE M DEB (TANK) 3.9 09:13:18 10° WNW 09:28:35 82° NNE 09:32:50 10° ESE
Landsat 5 3.5 09:24:50 10° S 09:29:20 70° WSW 09:33:51 10° NNW
Cosmos 2322 Rocket 3.3 09:24:16 10° S 09:29:34 43° ESE 09:34:54 10° NE
Cosmos 1782 4.2 09:32:44 24° NW 09:32:44 24° NW 09:35:06 10° NNW
USA 276 4.2 09:31:03 18° NNW 09:31:38 19° N 09:34:01 10° NE
Meteor 1-10 Rocket 4.3 09:26:01 10° S 09:31:44 83° E 09:37:37 10° N
Cosmos 2263 Rocket 2.4 09:29:07 10° NNW 09:34:48 74° ENE 09:40:27 10° SSE
SL-16 R/B 2.6 09:31:45 10° S 09:37:19 62° ESE 09:42:55 10° NNE
Meteor 1-14 Rocket 4.4 09:34:51 10° NNW 09:40:09 44° W 09:45:21 10° SSW
CZ-2C R/B 3.6 09:36:59 10° N 09:40:05 31° WNW 09:40:05 31° WNW
Cosmos 546 4.5 09:39:32 36° WNW 09:40:57 74° SW 09:44:46 10° SE
Cosmos 2227 4.1 09:41:06 10° NNW 09:46:46 83° WSW 09:52:23 10° SSE
USA 267 4.4 09:41:42 10° NE 09:47:15 31° NNW 09:51:38 15° WNW
NOSS 3-3 (A) 3.9 09:45:01 25° SW 09:48:27 64° NW 09:54:52 10° NNE
NOSS 3-3 (C) 3.9 09:45:10 25° SW 09:48:35 64° NW 09:54:56 10° NNE
deb Chang Zheng 4 4.1 09:44:46 10° NNE 09:49:02 60° ESE 09:53:14 10° S
Cosmos 1238 Rocket 4.4 09:43:04 10° NNW 09:49:10 41° W 09:54:47 10° SSW
Lacrosse 5 3.3 09:48:47 18° WNW 09:51:08 25° NNW 09:55:18 10° NNE
Meteor 2-6 Rocket 4.4 09:48:56 14° SSW 09:53:39 52° WNW 09:59:19 10° N
IRIDIUM 104 4.3 09:50:10 10° N 09:55:19 61° W 10:00:26 10° SSW
Cosmos 1707 Rocket 3.5 09:52:15 10° S 09:56:34 90° WSW 10:00:56 10° N
CZ-4C R/B 4.2 09:57:19 24° W 09:57:19 24° W 09:59:47 10° NW
Cosmos 921 Rocket 3.5 09:55:09 26° WSW 09:56:53 38° WNW 10:00:49 10° N
Meteor 1-5 Rocket 4.1 09:52:23 10° NNW 09:57:35 57° W 10:02:52 10° S
Cosmos 1898 Rocket 3.7 09:52:24 10° NNW 09:57:40 76° ENE 10:02:56 10° SSE
Cosmos 44 4.1 09:58:36 22° W 10:00:25 30° NW 10:04:30 10° NNE
Cosmos 2228 Rocket 4.0 10:01:20 22° WSW 10:02:52 27° WNW 10:06:38 10° NNW
IRIDIUM 114 4.5 09:59:23 10° NNW 10:04:26 50° W 10:09:26 10° SSW
SAR-Lupe-1 4.3 10:01:41 10° SSE 10:05:12 70° ENE 10:08:47 10° N
ATLAS 2AS CENTAUR R/B 4.0 09:58:23 10° NNW 10:05:29 43° NE 10:12:02 10° ESE
USA 32 4.0 10:03:40 10° N 10:08:54 72° W 10:14:07 10° S
Cosmos 1689 Rocket 3.8 10:08:01 10° SE 10:10:46 36° ENE 10:13:32 10° N
Meteor 1-4 Rocket 3.1 10:09:31 16° SW 10:11:48 34° WNW 10:15:01 10° N
ADEOS 3.5 10:07:02 10° N 10:12:16 79° WNW 10:17:28 10° SSW
X-37B 1.3 10:10:31 15° WNW 10:12:55 49° N 10:16:02 10° E
Cosmos 2173 Rocket 4.2 10:07:53 10° N 10:14:14 83° E 10:20:36 10° S
Cosmos 1536 2.8 10:11:37 10° N 10:15:43 80° W 10:19:45 10° S
IDEFIX/ARIANE 42P 4.3 10:13:07 10° NNW 10:15:53 14° WNW 10:17:40 12° W
Cosmos 1733 Rocket 3.2 10:13:09 10° N 10:17:31 78° E 10:21:50 10° S
Cosmos 1484 Rocket 2.8 10:14:59 10° N 10:18:58 78° WNW 10:22:57 10° SSW
ADEOS Rocket 3.3 10:13:50 10° S 10:20:42 57° W 10:26:55 10° NNW
USA 234 3.8 10:15:55 10° SSE 10:21:48 36° SW 10:27:42 10° WNW
Cosmos 1869 Rocket 4.4 10:18:48 10° NNW 10:22:29 27° W 10:26:07 10° SSW
ALOS 2.2 10:17:59 10° N 10:22:40 81° WNW 10:27:19 10° SSW
Meteor 1-11 Rocket 3.9 10:18:57 10° NNW 10:24:35 54° W 10:30:03 10° S
Cosmos 1937 Rocket 3.4 10:21:10 10° NNW 10:26:20 84° WSW 10:31:27 10° SSE
Meteor 1-31 Rocket 2.7 10:26:00 10° N 10:29:48 71° WNW 10:33:38 10° SSW
Cosmos 1862 Rocket 3.5 10:26:01 10° S 10:30:25 80° W 10:34:49 10° N
Cosmos 1814 Rocket 4.3 10:25:17 10° S 10:30:26 74° ESE 10:35:41 10° NNE
ERS-2 3.4 10:27:47 10° SW 10:30:33 20° W 10:33:21 10° NW
Cosmos 1437 Rocket 3.4 10:28:17 10° S 10:31:58 57° E 10:35:43 10° NNE
FALCON 9 DEB 3.1 10:31:23 10° SW 10:34:47 78° NW 10:38:14 10° NE
Cosmos 841 Rocket 3.5 10:30:24 10° SSW 10:35:37 79° WNW 10:40:54 10° NNE
Meteor 1-27 Rocket 4.1 10:30:20 10° SSW 10:36:01 47° WNW 10:41:44 10° N
SJ 16-02 2.4 10:34:12 10° NW 10:37:43 24° W 10:41:15 10° SSW
Meteor PRIRODA 4.0 10:35:38 10° NNE 10:39:18 70° ESE 10:42:55 10° S
H-2A R/B 3.8 10:37:53 10° WSW 10:39:43 12° W 10:41:35 10° WNW
Cosmos 2016 Rocket 4.0 10:38:17 10° N 10:44:25 86° W 10:50:31 10° S
Cosmos 1763 Rocket 4.3 10:41:22 10° SW 10:46:10 34° WNW 10:51:00 10° N
